This is the latest recevied weather packets stored in our database for station/object ON7EQ-13. If no packets are shown the sender has not sent any weather packets the latest 10 day(s).
| Time | Temp. | Humidity | Pressure | Rain* | Wind** | Luminosity | Snow |
|---|---|---|---|---|---|---|---|
| 1777322300 | 13.89° C | 62% | 1019.7 hPa | - | - | - | - |
| 1777321700 | 13.89° C | 61% | 1019.7 hPa | - | - | - | - |
| 1777321100 | 14.44° C | 61% | 1019.6 hPa | - | - | - | - |
| 1777320500 | 14.44° C | 62% | 1019.6 hPa | - | - | - | - |
| 1777319900 | 14.44° C | 62% | 1019.6 hPa | - | - | - | - |
| 1777319300 | 14.44° C | 62% | 1019.5 hPa | - | - | - | - |
| 1777318700 | 15° C | 62% | 1019.4 hPa | - | - | - | - |
| 1777318100 | 15° C | 62% | 1019.4 hPa | - | - | - | - |
| 1777317500 | 15° C | 61% | 1019.3 hPa | - | - | - | - |
| 1777316900 | 15.56° C | 60% | 1019.4 hPa | - | - | - | - |
| 1777316300 | 15.56° C | 58% | 1019.4 hPa | - | - | - | - |
| 1777315700 | 16.11° C | 56% | 1019.3 hPa | - | - | - | - |
| 1777315100 | 16.11° C | 53% | 1019.4 hPa | - | - | - | - |
| 1777314500 | 16.67° C | 49% | 1019.3 hPa | - | - | - | - |
| 1777313900 | 17.22° C | 48% | 1019.2 hPa | - | - | - | - |
| 1777313300 | 17.78° C | 47% | 1019.2 hPa | - | - | - | - |
| 1777312699 | 18.33° C | 46% | 1019.1 hPa | - | - | - | - |
| 1777312100 | 18.89° C | 45% | 1019.1 hPa | - | - | - | - |
| 1777311500 | 19.44° C | 44% | 1019.2 hPa | - | - | - | - |
| 1777310900 | 20° C | 44% | 1019.2 hPa | - | - | - | - |
| 1777310300 | 20.56° C | 43% | 1019.2 hPa | - | - | - | - |
| 1777309700 | 21.67° C | 42% | 1019.3 hPa | - | - | - | - |
| 1777309100 | 22.22° C | 42% | 1019.4 hPa | - | - | - | - |
| 1777308500 | 21.67° C | 42% | 1019.5 hPa | - | - | - | - |
| 1777307900 | 21.67° C | 43% | 1019.5 hPa | - | - | - | - |
* Rain since midnight (hover to see other rain measurements)
** Current wind speed in m/s (hover to see current wind gust speed)